Regional Weather Roundup
Issued by NWS

Home | Current Version | Previous Version | Text Only | Print | Product List | Glossary Off
Versions: 1 2 3 4 5 6 7 8 9 10 11 12 13 14 15 16 17 18 19 20 21 22 23 24 25 26 27 28 29 30 31 32 33 34 35 36 37 38 39 40 41 42 43 44 45 46 47 48 49 50

000
ASUS45 KPSR 202310
RWRAZ

ARIZONA HOURLY REGIONAL WEATHER ROUNDUP
NATIONAL WEATHER SERVICE PHOENIX AZ
400 PM MST FRI APR 20 2018

NOTE: FAIR INDICATES FEW OR NO CLOUDS BELOW 12,000 FEET WITH NO
SIGNIFICANT WEATHER AND/OR OBSTRUCTIONS TO VISIBILITY.

AZZ001>003-036-210000-
NORTHWEST ARIZONA

CITY           SKY/WX    TMP DP  RH WIND       PRES   REMARKS
BULLHEAD CITY  SUNNY     84  27  12 NW7       29.91F
KINGMAN        SUNNY     73  26  17 NW22G33   30.02S
$$

AZZ004>008-015-016-018-210000-
NORTH CENTRAL ARIZONA

CITY           SKY/WX    TMP DP  RH WIND       PRES   REMARKS
GRAND CANYON   LGT SNOW  34  33  96 N8        30.11  VSB 1   WCI  27
WILLIAMS       CLOUDY    43  34  70 NW14      30.07R
PRESCOTT       CLOUDY    61  28  28 W17G24    30.03S
FLAGSTAFF      CLOUDY    37  34  89 W8G18     30.09R FOG     WCI  31
PAYSON         CLOUDY    55  23  28 W14G20    30.04S
PAGE           SUNNY     52  38  58 SW9       30.01
$$

AZZ009>014-017-210000-
NORTHEAST ARIZONA

CITY           SKY/WX    TMP DP  RH WIND       PRES   REMARKS
WINSLOW        LGT RAIN  52  33  48 W25G31    30.02R
SAINT JOHNS    CLOUDY    53  24  32 W23G31    29.98S
WINDOW ROCK    LGT RAIN  44  28  53 W10G29    29.99S
SHOW LOW       PTSUNNY   50  21  32 W14G26    30.04S
$$

AZZ540-542>544-546-548-210000-
GREATER PHOENIX AREA

CITY           SKY/WX    TMP DP  RH WIND       PRES   REMARKS
PHOENIX        MOSUNNY   77  29  17 W13G26    29.95F
BUCKEYE        SUNNY     77  27  15 W15       29.96F
GLENDALE       MOSUNNY   79  30  17 S9G20     29.96F
DEER VALLEY    SUNNY     75  27  17 SW8G20    29.95F
SCOTTSDALE     SUNNY     75  30  19 W9        29.98F
MESA-FALCON    MOSUNNY   75  30  19 W17G24    29.97F
MESA-GATEWAY   MOSUNNY   73  28  19 NW12G17   29.99F
CHANDLER       SUNNY     75  27  16 W12       29.98F
$$

AZZ539-553-210000-
SOUTHWEST MARICOPA COUNTY AND PINAL COUNTY

CITY           SKY/WX    TMP DP  RH WIND       PRES   REMARKS
CASA GRANDE    SUNNY     74  28  18 W13G21    29.99F
GILA BEND      SUNNY     79  25  13 W15       29.96F
$$

AZZ503-504-507>509-210000-
SOUTHEAST ARIZONA

CITY           SKY/WX    TMP DP  RH WIND       PRES   REMARKS
TUCSON         SUNNY     73  20  13 W13G24    30.02F
DAVIS-MONTHAN  SUNNY     73  21  14 NW8G18    30.00F
RYAN FIELD     SUNNY     73  21  14 W14G21    30.02F
NOGALES        SUNNY     72  12  10 NW9G18    30.02S
SIERRA VISTA   SUNNY     68   3   8 W17G24    30.04
DOUGLAS        SUNNY     73   7   7 NW21G29   29.98F
SAFFORD        SUNNY     71  17  12 NW21G32   29.95S
$$

AZZ532-210000-
SOUTHWEST ARIZONA

CITY           SKY/WX    TMP DP  RH WIND       PRES   REMARKS
YUMA           SUNNY     82  31  15 W12       29.96F
$$

CAZ041-043-047-048-061-525>527-560>570-210000-
SOUTHERN CALIFORNIA

CITY           SKY/WX    TMP DP  RH WIND       PRES   REMARKS
DOWNTOWN L.A.  SUNNY     65  50  58 VRB3      30.05S
L.A. AIRPORT   MOSUNNY   64  50  60 W20G26    30.06F
SAN DIEGO      MOSUNNY   66  50  56 NW12      30.09F
BURBANK        SUNNY     68  52  56 S14       30.02S
ONTARIO        SUNNY     78  39  24 W15G22    30.01F
RIVERSIDE      SUNNY     79  37  22 W13G21    29.99F
PALM SPRINGS   SUNNY     87  27  11 SW13      29.94F
EL CENTRO NAS  SUNNY     84  23  10 CALM      29.96F
IMPERIAL       SUNNY     83  30  14 W6        29.94F
BLYTHE         SUNNY     85  27  12 W13       29.93F
NEEDLES        SUNNY     85  26  11 VRB3      29.92F
$$

NVZ020-UTZ003-210000-
SOUTHERN NEVADA-UTAH

CITY           SKY/WX    TMP DP  RH WIND       PRES   REMARKS
LAS VEGAS      MOSUNNY   82  25  12 N16G33    29.94F
SALT LAKE CITY PTSUNNY   63  34  33 W14       30.01R
$$

NMZ009-TXZ055-210000-
NEW MEXICO-WEST TEXAS

CITY           SKY/WX    TMP DP  RH WIND       PRES   REMARKS
ALBUQUERQUE    PTSUNNY   59   8  13 W13G21    29.91R
EL PASO        SUNNY     76   5   6 W24G37    29.85S
$$


........................KEY........................
SKY/WX - SKY CONDITION/WEATHER
TMP    - TEMPERATURE IN FAHRENHEIT
DP     - DEW POINT IN FAHRENHEIT
RH     - RELATIVE HUMIDITY IN PERCENT
WIND   - DIRECTION AND SPEED IN MILES PER HOUR (MPH)
VRB    - VARIABLE WIND DIRECTION
PRES   - MEAN SEA LEVEL PRESSURE IN INCHES OF MERCURY
         F - FALLING PRESSURE   R - RISING PRESSURE
         S - STEADY PRESSURE
VSB    - VISIBILITY IN MILES
HX     - HEAT INDEX IN FAHRENHEIT
WCI    - WIND CHILL INDEX IN FAHRENHEIT
TC     - TEMPERATURE IN CELSIUS WHICH IS ALSO KNOWN AS
         TEMPERATURE IN CENTIGRADE
AFB    - AIR FORCE BASE
         LUKE AFB IS LUKE AIR FORCE BASE
         DAVIS-MONTHAN IS DAVIS-MONTHAN AIR FORCE BASE
NAS    - NAVAL AIR STATION
         EL CENTRO NAS IS EL CENTRO NAVAL AIR STATION
N/A    - NOT AVAILABLE




USA.gov is the U.S. government's official web portal to all federal, state and local government web resources and services.